Location: *
(37.4917°N, 71.5558°E)
Time: 02:54:07
(UTC+00:00)

ADEOS II - Pass Details

Date: 09 April 2020
Orbit: 799 x 802 km, 98.5° (Epoch: 31 May)

Event Time Altitude Azimuth Distance (km) Brightness Sun altitude
Rises 22:27:33 0° 2° (N) 3,317 5.8 -26.1°
Reaches altitude 10° 22:30:06 10° 352° (N) 2,382 4.8 -25.7°
Enters shadow 22:33:44 30° 312° (NW) 1,419 3.2 -25.1°
